Regional Weather Roundup
Issued by NWS Upton, NY

Current Version | Previous Version | Graphics & Text | Print | Product List | Glossary Off
Versions: 1 2 3 4 5 6 7 8 9 10 11 12 13 14 15 16 17 18 19 20 21 22 23 24 25 26 27

000
ASUS41 KOKX 270804
RWROKX

REGIONAL WEATHER ROUNDUP
NATIONAL WEATHER SERVICE NEW YORK NY
400 AM EDT FRI MAY 27 2016

NOTE: "FAIR" INDICATES FEW OR NO CLOUDS BELOW 12,000 FEET WITH NO
SIGNIFICANT WEATHER AND/OR OBSTRUCTIONS TO VISIBILITY.

NYZ071-072-176-178-NJZ106-104-270900-
NEW YORK CITY METRO AREA


CITY           SKY/WX    TMP DP  RH WIND       PRES   REMARKS
CENTRAL PARK   CLEAR     74  56  53 VRB3      30.09R
LAGUARDIA APRT PTCLDY    68  63  84 E6        30.05S
KENNEDY INTL   PTCLDY    64  61  90 CALM      30.07S
NEWARK/LIBERTY MOCLDY    73  58  59 S3        30.05S
BRNX BOT. GARD   N/A     64  57  77 E1        30.06S
TETERBORO      CLOUDY    71  54  54 CALM      30.05R
$$

NYZ177-179-078>081-270900-
LONG ISLAND NEW YORK

CITY           SKY/WX    TMP DP  RH WIND       PRES   REMARKS
FARMINGDALE    PTCLDY    64  60  87 CALM      30.07S
ISLIP          PTCLDY    63  59  87 S3        30.07S
SHIRLEY        CLEAR     61  57  87 CALM      30.09R
RIVERHEAD        N/A     59  59 100 CALM      30.07S
WESTHAMPTON    CLEAR     54  52  93 SE5       30.10S FOG
EAST HAMPTON   FAIR      56  55  97 CALM      30.09S FOG
MONTAUK POINT    N/A     59  58  96 S6        30.11S
$$

NYZ052-065-067-270900-
HUDSON VALLEY

CITY           SKY/WX    TMP DP  RH WIND       PRES   REMARKS
WHITE PLAINS   CLEAR     64  57  78 CALM      30.07R
NEWBURGH       CLEAR     70  54  56 S7        30.06
MONTGOMERY     MOCLDY    66  60  81 CALM      30.05R
POUGHKEEPSIE   PTCLDY    67  56  67 CALM      30.03S
ALBANY         CLOUDY    73  50  44 S6        30.03R
$$

NJZ001-105-106-008-010-013-015-019>022-104-270900-
NEW JERSEY

CITY           SKY/WX    TMP DP  RH WIND       PRES   REMARKS
NEWARK/LIBERTY MOCLDY    73  58  59 S3        30.05S
TETERBORO      CLOUDY    71  54  54 CALM      30.05R
CALDWELL       CLOUDY    69  58  67 CALM      30.06R
MORRISTOWN     CLOUDY    63  57  82 CALM      30.06S
SOMERVILLE     CLOUDY    65  59  81 CALM      30.05R
SUSSEX         CLOUDY    64  59  83 CALM      30.07R
ANDOVER          N/A     70  59  68 VRB3      30.08R
TRENTON        CLOUDY    68  59  73 N7        30.06R
MILLVILLE      PTCLDY    67  62  84 CALM      30.07S
ATLANTIC CITY  PTCLDY    68  62  81 S5        30.07F
WRIGHTSTOWN    CLEAR     68  62  82 CALM      30.04S
TOMS RIVER     CLEAR     66  57  72 SW6       30.06S
BELMAR         PTCLDY    69  61  75 SW5       30.07S
$$

PAZ047>061-062-071-270900-
EASTERN PENNSYLVANIA

CITY           SKY/WX    TMP DP  RH WIND       PRES   REMARKS
PHILADELPHIA   PTCLDY    71  61  70 S6        30.06S
ALLENTOWN      CLOUDY    70  67  90 E5        30.06F
SCRANTON       PTCLDY    71  60  68 CALM      30.05F
$$

CTZ002-004>006-009-010-012-RIZ004-006-007-MAZ004-011-015-270900-
SOUTHERN NEW ENGLAND
 IN CT

CITY           SKY/WX    TMP DP  RH WIND       PRES   REMARKS
BRADLEY INTL   PTCLDY    65  53  65 S6        30.05S
HARTFORD       PTCLDY    68  54  60 CALM      30.06S
DANBURY        MOCLDY    62  56  80 CALM      30.08S
WTRBRY/OXFORD    N/A     61  52  72 CALM      30.09R
BRIDGEPORT     CLEAR     63  57  81 E3        30.07S
MERIDEN        PTCLDY    60  55  83 CALM      30.07S
NEW HAVEN      CLEAR     61  56  83 CALM      30.07F
CHESTER        FAIR      59  55  88 CALM      30.08S
GROTON         CLEAR     56  56 100 CALM      30.08F
WILLIMANTIC    CLOUDY    61  55  81 CALM      30.09S

 IN RI

CITY           SKY/WX    TMP DP  RH WIND       PRES   REMARKS
PROVIDENCE     MOCLDY    60  56  86 SE5       30.10S
BLOCK ISLAND   CLEAR     58  57  97 SW13      30.10F
WESTERLY       CLEAR     54  50  86 CALM      30.10S

 IN MA

CITY           SKY/WX    TMP DP  RH WIND       PRES   REMARKS
BOSTON         CLOUDY    59  55  87 NE5       30.10S
WORCESTER      CLOUDY    63  58  83 NE5       30.11R
WESTFIELD      CLOUDY    65  54  67 CALM      30.06S
PROVINCETOWN   CLOUDY    59  56  89 S10       30.12R
NANTUCKET      FOG       56  55  97 SE5       30.14R VSB 1/4
$$

ANZ330-335-338-340-345-350-353-355-270900-
COASTAL MARINE OBSERVATIONS


STATION/POSITION TIME  SKY/WX   TEMP    WIND        PRES    VSBY  WAVE
                                AIR SEA DIR/SP/G                  HT/PER
                 (UTC)          (F)     (DEG/KT/KT) (MB)    (MI)  (FT/S)
NY HARB ENTRANCE 0750            62 60  200/  8/ 10 1017.7          2/ 4
20S FIRE ISLAND  0650            61 59  220/ 12/ 14 1017.9          2/ 8
GREAT SOUTH BAY  0700            63 67  190/  4/  8   N/A
23 SSW MONTAUK P 0750            59 56  200/ 10/ 10 1018.7          2/ 7
15 E BARNEGAT LI 0722               59                N/A           3/ 4
HUDSON CANYON    0650            60 56              1019.1          3/ 8
KINGS POINT      0700            66 58              1017.5
EXECUTION ROCKS  NOT AVBL
CENTRAL LI SOUND 0745            61     150/  6/  8   N/A           1
EASTERN LI SOUND 0700            56 53  120/  4/  4   N/A
ROBBINS REEF     0700            71     160/  5/  6 1017.0
$$


>>>>>>>>>>>>>>>>>>>>>>>>>>>> KEY <<<<<<<<<<<<<<<<<<<<<<<<<<<
>                                                          <
>     SKY/WX - SKY CONDITION/PRESENT WEATHER               <
>     TMP    - TEMPERATURE IN FAHRENHEIT                   <
>     DP     - DEWPOINT IN FAHRENHEIT                      <
>     RH     - RELATIVE HUMIDITY IN PERCENT                <
>     WIND   - DIRECTION AND SPEED IN MPH                  <
>     PRES   - MEAN SEA LEVEL PRESSURE IN INCHES OF HG     <
>     WCI    - WIND CHILL INDEX                            <
>     VSB    - VISIBILITY IN MILES                         <
>     HX     - HEAT INDEX                                  <
>     TC     - TEMPERATURE IN CELSIUS                      <
>     VRB    - VARIABLE WIND DIRECTION                     <
>                                                          <
>>>>>>>>>>>>>>>>>>>>>>>>>>>> KEY <<<<<<<<<<<<<<<<<<<<<<<<<<<






USA.gov is the U.S. government's official web portal to all federal, state and local government web resources and services.